Weather History for Galax, VA

Change the Weather History Date:

Friday, January 10, 2014

  Actual Average (KBLF) Record (KBLF)
Temperature  
Mean Temperature 40 °F 34 °F  
Max Temperature 48 °F 42 °F 60 °F (2013)
Min Temperature 33 °F 26 °F -13 °F (1982)
Degree Days  
Heating Degree Days 24 31  
Month to date heating degree days 310  
Since 1 July heating degree days 2075  
Cooling Degree Days 0 0  
Month to date cooling degree days 0  
Year to date cooling degree days 0  
Moisture  
Dew Point 34 °F    
Average Humidity 78    
Maximum Humidity 93    
Minimum Humidity 30    
Precipitation  
Precipitation 0.51 in 0.09 in 0.81 in (1984)
Month to date precipitation 0.94  
Year to date precipitation 0.94  
Snow  
Snow 0.00 in - - ()
Month to date snowfall  
Since 1 July snowfall  
Snow Depth -    
Sea Level Pressure  
Sea Level Pressure 30.26 in    
Wind  
Wind Speed 3 mph (SSE)    
Max Wind Speed 10 mph    
Max Gust Speed 16 mph    
Visibility 4 miles    
Events Fog , Rain , Snow    
T = Trace of Precipitation, MM = Missing Value Source: NWS Daily Summary

Daily Weather History Graph

Daily Weather History Graph

Search for Another Location

Airport:

Trip Planner

Search our weather history database for the weather conditions in past years. The results will help you decide how hot, cold, wet, or windy it might be!

Date:

Astronomy

Jan. 10, 2014 Rise Set
Actual Time 7:36 AM EST 5:25 PM EST
Civil Twilight 7:07 AM EST 5:54 PM EST
Nautical Twilight 6:35 AM EST 6:26 PM EST
Astronomical Twilight 6:04 AM EST 6:57 PM EST
Moon 1:26 PM EST (1/10) 2:44 AM EST (1/10)
Length of Visible Light 10h 46m
Length of Day
9h 49m
Waxing Gibbous, 75% of the Moon is Illuminated
Jan 10
Waxing Gibbous
Jan 15
Full
Jan 24
Last Quarter
Jan 30
New
Feb 6
First Quarter

Hourly Weather History & Observations

Time (EST) Temp. Windchill Dew Point Humidity Pressure Visibility Wind Dir Wind Speed Gust Speed Precip Events Conditions
12:15 AM 37.4 °F 33.8 °F 10.4 °F 33% 30.41 in 10.0 mi SSW 4.6 mph - N/A   Overcast
12:35 AM 37.4 °F 33.8 °F 10.4 °F 33% 30.40 in 10.0 mi South 4.6 mph - N/A   Overcast
12:55 AM 37.4 °F - 12.2 °F 36% 30.40 in 10.0 mi Calm Calm - N/A   Overcast
1:15 AM 37.4 °F 34.9 °F 12.2 °F 36% 30.40 in 10.0 mi South 3.5 mph - N/A   Overcast
1:35 AM 37.4 °F - 12.2 °F 36% 30.39 in 10.0 mi Calm Calm - N/A   Overcast
1:55 AM 37.4 °F 32.8 °F 12.2 °F 36% 30.39 in 10.0 mi South 5.8 mph - N/A   Overcast
2:15 AM 37.4 °F 32.8 °F 8.6 °F 30% 30.38 in 10.0 mi South 5.8 mph - N/A   Overcast
2:35 AM 37.4 °F 32.8 °F 10.4 °F 33% 30.38 in 10.0 mi South 5.8 mph - N/A   Overcast
2:55 AM 37.4 °F 32.8 °F 12.2 °F 36% 30.38 in 10.0 mi South 5.8 mph - N/A   Overcast
3:15 AM 37.4 °F 32.8 °F 15.8 °F 41% 30.37 in 10.0 mi South 5.8 mph - N/A   Overcast
3:35 AM 37.4 °F 33.8 °F 17.6 °F 45% 30.37 in 10.0 mi South 4.6 mph - N/A   Overcast
3:55 AM 37.4 °F 32.8 °F 19.4 °F 48% 30.37 in 10.0 mi South 5.8 mph - N/A   Overcast
4:15 AM 35.6 °F 31.7 °F 21.2 °F 56% 30.36 in 7.0 mi South 4.6 mph - N/A   Overcast
4:35 AM 35.6 °F - 24.8 °F 65% 30.35 in 10.0 mi Calm Calm - N/A   Overcast
4:55 AM 35.6 °F - 26.6 °F 70% 30.35 in 7.0 mi Calm Calm - N/A   Overcast
5:15 AM 33.8 °F 30.8 °F 28.4 °F 81% 30.35 in 10.0 mi South 3.5 mph - N/A   Overcast
5:35 AM 33.8 °F - 28.4 °F 81% 30.34 in 5.0 mi Calm Calm - 0.01 in   Overcast
5:55 AM 33.8 °F - 28.4 °F 81% 30.34 in 7.0 mi Calm Calm - N/A   Overcast
6:15 AM 33.8 °F - 28.4 °F 81% 30.33 in 7.0 mi Calm Calm - 0.01 in   Overcast
6:35 AM 33.8 °F - 28.4 °F 81% 30.34 in 4.0 mi Calm Calm - 0.01 in   Overcast
6:55 AM 33.8 °F - 30.2 °F 87% 30.34 in 3.0 mi Calm Calm - N/A   Overcast
7:15 AM 33.8 °F 28.6 °F 30.2 °F 87% 30.34 in 1.2 mi South 5.8 mph - 0.04 in   Overcast
7:35 AM 33.8 °F - 30.2 °F 87% 30.33 in 0.8 mi Calm Calm - 0.08 in   Overcast
7:55 AM 35.6 °F - 30.2 °F 81% 30.34 in 0.2 mi Calm Calm - 0.02 in   Overcast
8:15 AM 35.6 °F 32.8 °F 32.0 °F 87% 30.34 in 0.2 mi North 3.5 mph - 0.07 in   Overcast
8:35 AM 35.6 °F - 32.0 °F 87% 30.34 in 0.2 mi Calm Calm - 0.08 in   Overcast
8:55 AM 35.6 °F - 30.2 °F 81% 30.35 in 0.2 mi Calm Calm - N/A   Overcast
9:15 AM 35.6 °F - 32.0 °F 87% 30.35 in 0.5 mi Calm Calm - 0.02 in   Overcast
9:35 AM 35.6 °F 31.7 °F 32.0 °F 87% 30.34 in 0.5 mi ESE 4.6 mph - 0.13 in Snow Light Snow
9:55 AM 37.4 °F - 33.8 °F 87% 30.35 in 0.2 mi Calm Calm - 0.01 in   Overcast
10:15 AM 37.4 °F - 33.8 °F 87% 30.34 in 0.2 mi Calm Calm - 0.03 in   Overcast
10:35 AM 37.4 °F - 35.6 °F 93% 30.34 in 0.2 mi Calm Calm - 0.04 in   Overcast
10:55 AM 39.2 °F - 35.6 °F 87% 30.34 in 0.5 mi Calm Calm - 0.01 in   Drizzle
11:15 AM 39.2 °F - 37.4 °F 93% 30.33 in 0.2 mi Calm Calm - 0.03 in Fog Fog
11:35 AM 41.0 °F - 37.4 °F 87% 30.31 in 0.2 mi Calm Calm - 0.03 in Fog Fog
11:55 AM 42.8 °F - 39.2 °F 87% 30.29 in 0.2 mi Calm Calm - N/A Fog Fog
12:15 PM 42.8 °F - 39.2 °F 87% 30.28 in 0.2 mi Calm Calm - 0.01 in   Drizzle
12:35 PM 42.8 °F - 39.2 °F 87% 30.26 in 0.8 mi Calm Calm - 0.03 in Rain Rain
12:55 PM 44.6 °F - 42.8 °F 93% 30.25 in 0.8 mi Calm Calm - N/A   Drizzle
1:15 PM 44.6 °F - 42.8 °F 93% 30.24 in 0.8 mi Calm Calm - 0.02 in   Drizzle
1:35 PM 46.4 °F - 42.8 °F 87% 30.23 in 0.2 mi Calm Calm - 0.04 in   Drizzle
1:55 PM 46.4 °F - 42.8 °F 87% 30.22 in 0.2 mi Calm Calm - N/A Fog Fog
2:15 PM 46.4 °F 44.3 °F 44.6 °F 93% 30.21 in 0.2 mi SE 4.6 mph - 0.01 in Fog Fog
2:35 PM 46.4 °F 45.2 °F 44.6 °F 93% 30.21 in 1.5 mi SE 3.5 mph - 0.03 in Rain Rain
2:55 PM 46.4 °F 45.2 °F 44.6 °F 93% 30.20 in 1.2 mi SE 3.5 mph - 0.01 in   Heavy Drizzle
3:15 PM 46.4 °F 43.5 °F 44.6 °F 93% 30.19 in 3.0 mi SE 5.8 mph - 0.02 in   Light Drizzle
3:35 PM 46.4 °F 45.2 °F 44.6 °F 93% 30.19 in 5.0 mi SE 3.5 mph - 0.02 in   Overcast
3:55 PM 46.4 °F - 44.6 °F 93% 30.19 in 0.8 mi Calm Calm - N/A   Overcast
4:15 PM 46.4 °F - 44.6 °F 93% 30.19 in 0.2 mi Calm Calm - N/A Fog Fog
4:35 PM 46.4 °F 44.3 °F 42.8 °F 87% 30.19 in 7.0 mi South 4.6 mph - N/A   Drizzle
4:55 PM 46.4 °F 45.2 °F 42.8 °F 87% 30.19 in 4.0 mi SSE 3.5 mph - N/A   Light Drizzle
5:15 PM 44.6 °F 43.1 °F 42.8 °F 93% 30.18 in 5.0 mi South 3.5 mph - 0.01 in   Overcast
5:35 PM 44.6 °F 43.1 °F 41.0 °F 87% 30.17 in 4.0 mi SSE 3.5 mph - 0.01 in   Overcast
5:55 PM 44.6 °F - 41.0 °F 87% 30.17 in 3.0 mi Calm Calm - N/A   Overcast
6:15 PM 44.6 °F - 41.0 °F 87% 30.16 in 1.2 mi Calm Calm - N/A   Overcast
6:35 PM 44.6 °F 43.1 °F 41.0 °F 87% 30.16 in 5.0 mi SE 3.5 mph - N/A   Overcast
6:55 PM 44.6 °F 43.1 °F 41.0 °F 87% 30.16 in 2.0 mi SE 3.5 mph - N/A   Overcast
7:15 PM 44.6 °F - 41.0 °F 87% 30.16 in 0.2 mi Calm Calm - N/A Fog Fog
7:35 PM 44.6 °F 43.1 °F 39.2 °F 81% 30.16 in 0.2 mi SSE 3.5 mph - N/A Fog Fog
7:55 PM 42.8 °F 39.3 °F 39.2 °F 87% 30.15 in 0.2 mi SSE 5.8 mph - N/A Fog Fog
8:15 PM 44.6 °F 40.2 °F 41.0 °F 87% 30.16 in 1.5 mi SSE 8.1 mph - N/A   Overcast
8:35 PM 44.6 °F 42.2 °F 39.2 °F 81% 30.15 in 3.0 mi SSE 4.6 mph - N/A   Overcast
8:55 PM 44.6 °F 42.2 °F 41.0 °F 87% 30.15 in 4.0 mi SSE 4.6 mph - N/A   Overcast
9:15 PM 44.6 °F 42.2 °F 42.8 °F 93% 30.14 in 10.0 mi SSE 4.6 mph - N/A   Overcast
9:35 PM 44.6 °F 42.2 °F 42.8 °F 93% 30.13 in 3.0 mi South 4.6 mph - N/A   Overcast
9:55 PM 46.4 °F 41.9 °F 42.8 °F 87% 30.13 in 1.2 mi SSW 9.2 mph - N/A   Overcast
10:15 PM 46.4 °F 42.9 °F 42.8 °F 87% 30.12 in 0.5 mi South 6.9 mph - N/A Fog Fog
10:35 PM 46.4 °F 41.9 °F 42.8 °F 87% 30.12 in 2.5 mi South 9.2 mph - N/A   Overcast
10:55 PM 46.4 °F - 44.6 °F 93% 30.10 in 0.5 mi Calm Calm - N/A Fog Fog
11:15 PM 48.2 °F - 44.6 °F 87% 30.09 in 1.0 mi SSW 3.5 mph - N/A   Overcast
11:35 PM 48.2 °F - 44.6 °F 87% 30.08 in 1.8 mi SSW 10.4 mph 16.1 mph N/A   Overcast
11:55 PM 48.2 °F - 46.4 °F 93% 30.07 in 1.8 mi South 6.9 mph - N/A   Overcast